EW6103 Weather Reports


time (UTC)temp
C
wind
direction
speed
KPH
gust
KPH
rain 1hr
cm
rain 24hr
cm
rain mn
cm
humidity
%
barometer
mb
20260503202010 16 135 3.2 6.4 0.00 0.00 0.00 48 1013.1
20260503201009 16 135 4.8 9.7 0.00 0.00 0.00 48 1012.9
20260503200012 16 90 4.8 6.4 0.00 0.00 0.00 46 1013.2
20260503195009 17 135 4.8 6.4 0.00 0.00 0.00 46 1013.1
20260503194012 17 135 6.4 9.7 0.00 0.00 0.00 45 1013.0
20260503193010 17 135 6.4 9.7 0.00 0.00 0.00 46 1013.0
20260503192009 16 0 3.2 6.4 0.00 0.00 0.00 46 1012.9
20260503191008 16 135 3.2 6.4 0.00 0.00 0.00 47 1013.0
20260503190013 16 90 1.6 6.4 0.00 0.00 0.00 47 1012.9
20260503185009 17 135 1.6 4.8 0.00 0.00 0.00 45 1012.9
20260503184006 18 90 1.6 6.4 0.00 0.00 0.00 43 1012.7
20260503183010 18 180 3.2 6.4 0.00 0.00 0.00 41 1012.5
20260503182009 20 135 4.8 8.0 0.00 0.00 0.00 37 1012.3
20260503181010 20 180 6.4 11.3 0.00 0.00 0.00 36 1012.2
20260503175009 21 180 4.8 14.5 0.00 0.00 0.00 36 1012.1
20260503174009 21 180 6.4 11.3 0.00 0.00 0.00 35 1011.9
20260503173009 22 135 6.4 14.5 0.00 0.00 0.00 34 1012.0
20260503172008 22 180 6.4 14.5 0.00 0.00 0.00 33 1011.9
20260503151008 26 135 8.0 17.7 0.00 0.00 0.00 28 1011.9
20260503131008 26 90 6.4 17.7 0.00 0.00 0.00 29 1013.1
20260503081008 20 180 6.4 14.5 0.00 0.00 0.00 41 1016.8
20260503071009 18 180 6.4 11.3 0.00 0.00 0.00 41 1017.1
20260503055009 13 45 3.2 6.4 0.00 0.00 0.00 60 1017.5
20260503054009 12 45 1.6 3.2 0.00 0.00 0.00 64 1017.5
20260503053010 11 45 1.6 3.2 0.00 0.00 0.00 70 1017.5
20260503052009 11 45 0.0 1.6 0.00 0.00 0.00 72 1017.6
20260503051008 10 45 1.6 3.2 0.00 0.00 0.00 71 1017.7
20260503050012 8 0 1.6 3.2 0.00 0.00 0.00 77 1017.8
20260503045008 8 270 1.6 3.2 0.00 0.00 0.00 77 1017.8
20260503044009 6 45 1.6 3.2 0.00 0.00 0.00 87 1018.0
20260503043010 5 45 0.0 1.6 0.00 0.00 0.00 84 1018.0
20260503042009 5 45 0.0 1.6 0.00 0.00 0.00 83 1018.0
20260503041008 5 45 0.0 1.6 0.00 0.00 0.00 82 1018.0
20260503040013 5 45 0.0 3.2 0.00 0.00 0.00 81 1017.7
20260503035008 4 0 1.6 4.8 0.00 0.00 0.00 82 1017.8
20260503034008 3 45 0.0 0.0 0.00 0.00 0.00 84 1017.9
20260503033009 3 45 0.0 0.0 0.00 0.00 0.00 84 1017.7
20260503031009 4 45 0.0 0.0 0.00 0.00 0.00 83 1017.9
20260503030010 4 45 0.0 0.0 0.00 0.00 0.00 82 1017.8
20260503025006 5 45 0.0 0.0 0.00 0.00 0.00 82 1017.9
20260503024008 5 45 0.0 0.0 0.00 0.00 0.00 81 1017.8
20260503023008 5 45 0.0 1.6 0.00 0.00 0.00 81 1017.9
20260503022008 5 45 0.0 1.6 0.00 0.00 0.00 80 1017.9
20260503021008 5 45 0.0 1.6 0.00 0.00 0.00 80 1017.8
20260503020013 5 45 0.0 1.6 0.00 0.00 0.00 80 1018.0
20260503015007 5 0 0.0 3.2 0.00 0.00 0.00 81 1018.0
20260503014008 5 0 0.0 1.6 0.00 0.00 0.00 81 1018.0
20260503013010 5 0 0.0 1.6 0.00 0.00 0.00 82 1018.2
20260503012009 5 0 0.0 0.0 0.00 0.00 0.00 81 1017.9
20260503011009 5 0 0.0 0.0 0.00 0.00 0.00 82 1018.0
20260503010015 5 0 0.0 0.0 0.00 0.00 0.00 81 1018.0
20260503005008 5 0 0.0 0.0 0.00 0.00 0.00 80 1018.0
20260503003010 6 0 0.0 1.6 0.00 0.00 0.00 79 1018.0
20260503002008 6 0 0.0 1.6 0.00 0.00 0.00 78 1018.1
20260503001008 6 0 0.0 1.6 0.00 0.00 0.00 78 1018.2
20260502235009 6 45 0.0 0.0 0.00 0.00 0.00 78 1018.4
20260502234009 6 45 0.0 0.0 0.00 0.00 0.00 79 1018.3
20260502233010 6 45 0.0 0.0 0.00 0.00 0.00 78 1018.5
20260502232009 6 45 0.0 0.0 0.00 0.00 0.00 78 1018.5
20260502231008 7 45 0.0 0.0 0.00 0.00 0.00 77 1018.4
20260502230014 7 0 0.0 1.6 0.00 0.00 0.00 74 1018.5
20260502225008 7 0 0.0 1.6 0.00 0.00 0.00 75 1018.6
20260502223010 8 0 0.0 3.2 0.00 0.00 0.00 73 1018.4
20260502222006 8 0 1.6 3.2 0.00 0.00 0.00 73 1018.5
20260502220010 8 45 0.0 1.6 0.00 0.00 0.00 72 1018.5
20260502215007 8 45 0.0 1.6 0.00 0.00 0.00 74 1018.4
20260502214008 8 0 0.0 1.6 0.00 0.00 0.00 73 1018.4
20260502213006 8 0 0.0 0.0 0.00 0.00 0.00 74 1018.5
20260502212008 8 0 0.0 1.6 0.00 0.00 0.00 74 1018.4
20260502211009 8 0 1.6 4.8 0.00 0.00 0.00 73 1018.5
20260502210011 8 0 0.0 3.2 0.00 0.00 0.00 75 1018.5
20260502205008 8 270 0.0 3.2 0.00 0.00 0.00 75 1018.7
20260502204006 8 0 0.0 0.0 0.00 0.00 0.00 76 1018.7
20260502203011 8 0 0.0 0.0 0.00 0.00 0.00 75 1018.6